Weather History for Johnstown, PA

Change the Weather History Date:

Tuesday, June 4, 2013

  Actual Average Record
Temperature  
Mean Temperature 54 °F 62 °F  
Max Temperature 66 °F 71 °F 102 °F (1895)
Min Temperature 43 °F 53 °F 39 °F (1929)
Degree Days  
Heating Degree Days 12 5  
Month to date heating degree days 20  
Since 1 June heating degree days 20  
Since 1 July heating degree days 6629  
Cooling Degree Days 0 2  
Month to date cooling degree days 5  
Year to date cooling degree days 29  
Since 1 June cooling degree days 5  
Growing Degree Days 4 (Base 50)    
Moisture  
Dew Point 39 °F    
Average Humidity 56    
Maximum Humidity 74    
Minimum Humidity 41    
Precipitation  
Precipitation 0.00 in 0.15 in 2.00 in (1927)
Month to date precipitation 0.60  
Year to date precipitation 17.24  
Sea Level Pressure  
Sea Level Pressure 30.13 in    
Wind  
Wind Speed 8 mph (NNW)    
Max Wind Speed 12 mph    
Max Gust Speed 18 mph    
Visibility 10 miles    
Events      
T = Trace of Precipitation, MM = Missing Value Source: NWS Daily Summary

Daily Weather History Graph

Daily Weather History Graph

Search for Another Location

Airport:

Trip Planner

Search our weather history database for the weather conditions in past years. The results will help you decide how hot, cold, wet, or windy it might be!

Date:

Astronomy

Jun. 04, 2013 Rise Set
Actual Time 5:46 AM EDT 8:41 PM EDT
Civil Twilight 5:13 AM EDT 9:13 PM EDT
Nautical Twilight 4:32 AM EDT 9:55 PM EDT
Astronomical Twilight 3:45 AM EDT 10:42 PM EDT
Moon 3:15 AM EDT (6/4) 5:08 PM EDT (6/4)
Length of Visible Light 16h 00m
Length of Day
14h 54m
Waning Crescent, 14% of the Moon is Illuminated
Jun 4
Waning Crescent
Jun 8
New
Jun 16
First Quarter
Jun 23
Full
Jun 30
Last Quarter

Hourly Weather History & Observations

Time (EDT) Temp. Windchill Dew Point Humidity Pressure Visibility Wind Dir Wind Speed Gust Speed Precip Events Conditions
12:54 AM 48.0 °F - 36.0 °F 63% 30.06 in 10.0 mi NNW 11.5 mph - N/A   Clear
1:54 AM 45.0 °F 39.7 °F 35.1 °F 68% 30.06 in 10.0 mi North 10.4 mph - N/A   Clear
2:54 AM 45.0 °F 39.3 °F 36.0 °F 71% 30.07 in 10.0 mi North 11.5 mph - N/A   Clear
3:54 AM 44.1 °F 40.8 °F 36.0 °F 73% 30.07 in 10.0 mi North 5.8 mph - N/A   Clear
4:54 AM 44.1 °F 41.5 °F 36.0 °F 73% 30.09 in 10.0 mi North 4.6 mph - N/A   Clear
5:54 AM 43.0 °F 40.3 °F 35.1 °F 74% 30.10 in 10.0 mi NNW 4.6 mph - N/A   Clear
6:54 AM 46.0 °F 44.8 °F 37.0 °F 71% 30.11 in 10.0 mi WNW 3.5 mph - N/A   Clear
7:54 AM 48.9 °F - 37.0 °F 64% 30.13 in 10.0 mi NNW 5.8 mph - N/A   Clear
8:54 AM 51.1 °F - 37.9 °F 61% 30.15 in 10.0 mi North 9.2 mph - N/A   Clear
9:54 AM 54.0 °F - 39.9 °F 59% 30.17 in 10.0 mi North 6.9 mph - N/A   Clear
10:54 AM 57.0 °F - 41.0 °F 55% 30.17 in 10.0 mi NNW 9.2 mph 17.3 mph N/A   Partly Cloudy
11:54 AM 59.0 °F - 41.0 °F 51% 30.15 in 10.0 mi North 8.1 mph - N/A   Clear
12:54 PM 61.0 °F - 42.1 °F 50% 30.14 in 10.0 mi Variable 4.6 mph - N/A   Clear
1:54 PM 63.0 °F - 41.0 °F 45% 30.14 in 10.0 mi NW 8.1 mph - 0.00 in   Partly Cloudy
2:54 PM 64.0 °F - 42.1 °F 45% 30.14 in 10.0 mi WNW 10.4 mph 18.4 mph N/A   Scattered Clouds
3:54 PM 64.0 °F - 41.0 °F 43% 30.13 in 10.0 mi Variable 3.5 mph - N/A   Partly Cloudy
4:54 PM 64.9 °F - 41.0 °F 42% 30.13 in 10.0 mi Variable 5.8 mph - N/A   Partly Cloudy
5:54 PM 64.9 °F - 41.0 °F 42% 30.13 in 10.0 mi NW 5.8 mph - N/A   Clear
6:54 PM 64.0 °F - 39.9 °F 41% 30.14 in 10.0 mi NW 3.5 mph - N/A   Clear
7:54 PM 62.1 °F - 42.1 °F 48% 30.15 in 10.0 mi WNW 6.9 mph - N/A   Clear
8:54 PM 57.9 °F - 42.1 °F 56% 30.16 in 10.0 mi WNW 5.8 mph - N/A   Clear
9:54 PM 59.0 °F - 41.0 °F 51% 30.16 in 10.0 mi NNW 4.6 mph - N/A   Clear
10:54 PM 57.9 °F - 39.9 °F 51% 30.16 in 10.0 mi North 4.6 mph - N/A   Clear
11:54 PM 55.9 °F - 41.0 °F 57% 30.16 in 10.0 mi Calm Calm - N/A   Clear